Location: DARK SKY Beskydy - Park tmavé oblohy, www.darkskybeskydy.cz
(49.4926°N, 18.5016°E)
Time: 04:05:26
(UTC+01:00)

Envisat - Pass Details

Date: 08 December 2022
Orbit: 763 x 765 km, 98.2° (Epoch: 05 February)

Event Time Altitude Azimuth Distance (km) Brightness Sun altitude
Rises 03:52:06 0° 16° (NNE) 3,244 6.5 -34.1°
Reaches altitude 10° 03:54:27 10° 20° (NNE) 2,313 5.7 -33.7°
Enters shadow 03:55:57 20° 24° (NNE) 1,739 5.0 -33.4°
